Lid_Strength_Index
5 4 4 4 4 5 5 4 3 3 3 3 2 2 3 3 3 3 2 3 1 2
4 4 4 4 5 5 5 4 4 4 4 3 3 3 3 3 3 3 2 2 1 2
4 4 5 5 6 6 5 5 5 5 4 3 3 3 3 3 3 3 2 1 2 1
5 5 5 5 5 5 6 6 6 5 4 3 3 3 3 3 3 3 2 2 3 3
5 5 5 5 5 6 6 5 5 5 5 4 4 4 4 4 3 3 3 3 2 2
5 6 6 5 5 5 5 6 6 5 5 5 4 4 4 4 4 3 3 2 2 2
6 5 5 5 5 5 5 5 5 6 6 6 6 5 5 5 5 4 2 1 1 1
6 6 6 6 6 6 6 6 6 6 6 6 6 5 5 5 5 4 3 2 2 1
7 7 7 7 8 7 7 7 7 7 6 6 6 4 4 4 4 3 3 3 2 1
8 8 8 8 8 8 8 8 8 8 7 7 6 4 3 3 4 3 3 3 2 2
8 9 9 9 9 9 9 9 8 8 7 7 7 4 4 3 3 3 2 3 4 5
9 10 10 10 10 9 8 8 7 5 6 7 6 3 4 6 7 7 7 7 7 8
8 10 10 9 9 9 8 8 7 7 6 5 6 5 5 6 7 8 8 7 7 6
8 9 8 9 9 10 9 9 9 8 8 7 7 7 6 7 9 10 10 11 10 9